Location: Paris
(48.6709°N, 2.3750°E)
Time: 20:00:00
(UTC+02:00)

QB50P2 - Pass Details

Date: 03 July 2022
Orbit: 590 x 605 km, 97.9° (Epoch: 18 August)

Event Time Altitude Azimuth Distance (km) Brightness Sun altitude
Rises 04:00:42 0° 7° (N) 2,864 ? -13.0°
Reaches altitude 10° 04:02:59 10° 360° (N) 1,958 ? -12.8°
Maximum altitude 04:06:56 39° 291° (WNW) 916 ? -12.5°
Enters shadow 04:09:47 17° 230° (SW) 1,546 ? -12.3°
